Погода в Акбайтале

Погода в Акбайтале : погода сейчас, прогноз погоды и архив. Всё, что Вы хотите узнать о погоде в Акбайтале!

Хотите узнать прогноз погоды в Акбайтале? Тогда Вам сюда: Погода в Акбайтале

Поиск расширенной информации на нашем сайте:

Другие новости

Новости СМИ2

Главная страница сайта

Новости сайта

03.07.2017

Напоминаем, что на нашем специализированном сайте Метеоцентр.Азия вы можете получить высокодетализированные автоматические прогнозы погоды по пунктам России, СНГ и мира в авиационном формате (включающие направление и скорость ветра, видимость, явления погоды, количество и форму облачности, нижнюю и верхнюю границу облачности).


Погода в Акбайтале - сегодня

Время (UTC), дата Ветер
(°,м/с) 
Видим.   Явления Облачность Т
(°С)
Тd
(°С)
f(%) Тe
(°С)
Pmin
(гПа)
dP
(гПа)
Po
(мм)
O2
(г/м3)
Тmin Tmax R s Состояние
почвы
18 19.05.18 020 (С) н/о    3/0 
[Cu med, cong]
+22.8 +5.8 33 +23  1018.1  1.5  743  276    +28.6       
21 19.05.18 340 (С) н/о    ясно 
+18.8 +13.8 73 +27  1018.4  -0.1  743  277           
00 20.05.18 тихо ()   н/о    ясно 
+16.2 +2.7 40 +16  1018.6  743  282           
03 20.05.18 тихо ()   20000 м    3/0 верхняя 
[Ci fib]
+18.6 +4.1 38 +19  1019.1  0.7  744  280           
06 20.05.18 070 (В) 20000 м    5/5 1000 м 
[Cu hum]
+27.5 +19.8 63 +46  1018.3  0.1  744  268  +16.2         
09 20.05.18 040 (СВ) 20000 м    4/4 1000 м 
[Cu hum]
+29.2 +9.4 29 +30  1016.9  -1.3  743  269           
12 20.05.18 050 (СВ) 20000 м    3/3 1000 м 
[Cu hum]
+30.5 +9.7 28 +31  1015.7  -1  742  267           
15 20.05.18 060 (СВ) 20000 м    3/3 1000 м 
[Cu hum]
+27 +7.7 29 +27  1015.7  -0.3  742  271    +30.5       
18 20.05.18 360 (С) н/о    ясно 
+22.8 +5.8 33 +23  1017.9  1.7  743  275    +30.5       
00 21.05.18 040 (СВ) н/о    ясно 
+15 +2.1 42 +16  1018  -0.1  743  283           
03 21.05.18 070 (В) 20000 м    3/0 верхняя 
[Ci fib]
+16.3 +2.7 40 +17  1018.7  0.8  743  282           
06 21.05.18 тихо ()   20000 м    3/0 верхняя 
[Ci fib]
+24 +7.7 35 +24  1017.7  -0.3  743  274  +15         
09 21.05.18 050 (СВ) 20000 м    3/0 300 м верхняя 
[Ci fib]
+28.8 +10 31 +30  1016.9  -0.3  743  269           
12 21.05.18 080 (В) 20000 м    3/0 верхняя 
[Ci fib]
+30.3 +9.8 28 +31  1014.6  -2.1  741  267           
15 21.05.18 010 (С) 20000 м    3/0 верхняя 
[Ci fib]
+29.8 +10.3 30 +32  1014.5  -0.2  741  267    +30.3       
18 21.05.18 360 (С) н/о    ясно 
+22.6 +6.4 35 +23  1016  0.9  742  275    +30.3       
21 21.05.18 350 (С) н/о    ясно 
+18 +4.3 40 +19  1017.3  0.8  743  280           
00 22.05.18 050 (СВ) н/о    ясно 
+16.5 +3.4 42 +17  1016.3  -1.2  742  281           
03 22.05.18 070 (В) 20000 м    ясно 
+18.8 +4.1 38 +20  1016  742  279           
06 22.05.18 тихо ()   20000 м    ясно 
+30 +10.6 30 +32  1015.1  0.1  742  267  +16.5         
09 22.05.18 тихо ()   20000 м    ясно 
+32.5 +11.3 27 +36  1014.1  -0.7  741  265           
12 22.05.18 320 (СЗ) 20000 м    ясно 
+34 +11.3 25 +37  1015.8  -0.2  741  263           
15 22.05.18 350 (С) 20000 м    3/0 средняя 
[Ac cast]
+31.2 +10.5 28 +33  1010.5  13.7  741  266    +34       
18 22.05.18 360 (С) н/о    4/0 средняя 
[Ac cast]
+24.8 +7.4 33 +25  1015  0.7  741  273    +34       
21 22.05.18 020 (С) н/о    3/0 средняя 
[Ac cast]
+20.3 +5.6 38 +20  1016.4  0.9  742  277           
Время (UTC), дата Ветер
(°,м/с) 
Видим.   Явления Облачность Т
(°С)
Тd
(°С)
f(%) Тe
(°С)
Pmin
(гПа)
dP
(гПа)
Po
(мм)
O2
(г/м3)
Тmin Tmax R s Состояние
почвы

Для получения пояснительной информации подведите курсор к названию столбца.

ПОГОДА в Акбайтале - архив

Всё, что Вы хотите узнать о погоде в Акбайтале - удобно и подробно!

Выберите нужную дату (начиная с 1 января 2015* года) и нажмите кнопку "Найти".
Будут отображены архивные сводки погоды по пункту Акбайтал, начиная с указанной даты.


Отображать данные в формате CSV (для использования в таблицах Excel)


Внимание! Наш архив погоды предназначен исключительно для личного некоммерческого использования в познавательных целях. Если Вам необходимы официальные справки о состоянии погоды (для производственных, юридических, коммерческих и т.п. целей), обращайтесь в органы Росгидромета.

*Примечание: данная дата относится к архиву по метеостанциям СССР (Россия, СНГ, Балтия).
Архив по метеостанциям Зарубежной Европы и Азии (кроме Китая) хранится 10 дней, по другим регионам земного шара (Китай, Африка, Америка, Австралия, Океания) - 1 день.

Акбайтал - район местоположения метеостанции


Название, широта, долгота, высота метеостанции:
Акбайтал 43.2°ш. 64.3°д. 234 м над ур. моря [Узбекистан]

Дополнительная информация

В oтличие oт бoльшинства пoгoдных сайтoв мы публикуем пoдрoбную метеoинфoрмацию в детальнoм прoфессиoнальнoм фoрмате.

Характеристики температуры и влажнoсти вoздуха измеряются на высoте 2 м в тени вдали oт зданий и деревьев.
Скoрoсть ветра измеряется на высoте 10 м (на урoвне рoста челoвека скoрoсть ветра ниже в 1.5-2 раза). Если метеoстанция нахoдится в гoрoде или в лесу, тo скoрoсть ветра занижена на 2-4 м/с пo сравнению с oткрытым местoм. Скoрoсть ветра над акватoриями крупных рек и oзёр, а также на вершинах хoлмoв на 2-5 м/с выше, чем в oбычных услoвиях.
Атмoсфернoе давление в разных тoчках местнoсти мoжет значительнo oтличаться oт давления на метеoстанции, в зависимoсти oт услoвий рельефа (при пoдъёме на 10 м давление пoнижается примернo на 1 мм рт.ст.).